sat.trackr.live / text

‹ back to catalog

ONEWEB-0096

NORAD 45439 · 2020-020R

PAYLOAD ACTIVE UNKNOWN

§ Identity

Operator
Country
UK
Launch date
2020-03-21
Launch site
TYMSC
Launch vehicle
Mass (kg)
RCS (m²)

Purposes: comms

External: N2YO · Heavens-Above · Gunter

§ Orbital elements

Epoch: 2026-09-20T01:06:54.724608Z

Period
109.81 min
Inclination
87.8972°
Eccentricity
0.0001746
Mean motion
13.11414657 rev/d
Perigee alt
1,216.4 km
Apogee alt
1,219.0 km
Semi-major
7,595.8 km
B*
1.0837e-3
RAAN
2.2101°
Arg perigee
104.7945°
Mean anomaly
255.3377°
Rev number
31,509

§ Raw data

ONEWEB-00961 45439U 20020R   26263.04646672  .00000397  00000+0  10837-2 0  99922 45439  87.8972   2.2101 0001746 104.7945 255.3377 13.11414657315095

JSON: /api/v1/satellites/45439 · /tle

For live sub-satellite position, see the globe view (requires WebGL).

§ Visibility from observer

Set your observer location to see the next 7 days of passes ≥ 10°. The values pass through the URL so the page stays shareable.

No JS? Fill the form by hand. The geolocation button needs JavaScript.